Weather in Azey

Russia / Irkutsk Oblast     54°30′32″N   100°45′57″E
temp.,
°C
wind,
m/s
gust,
m/s
humid.,
%
clouds,
%
prec.,
mm/h
press.,
hPa
HPBL,
m
8 march, mon
mon823:00−3wsw2290100 0.0 101638
02:00−5nnw51090100 0.6 1019668
05:00−9wnw41282100 0.0 1023739
08:00−12nw4118699 0.0 1027366
11:00−8wnw368257 0.0 1027483
14:00−5wnw027240 0.0 1026706
17:00−6se358267 0.0 1024544
20:00−8se4128983 0.0 1023336
9 march, tue
tue923:00−8se5158787 0.0 1019455
02:00−8se4129293 0.0 1017337
05:00−11sse239681 0.0 101546
08:00−10sse229383 0.0 101638
11:00−4s2287100 0.0 1016123
14:000sw2510096 0.0 1016275
17:000nnw61091100 0.3 1019815
20:00−6nw31283100 0.3 1024461
10 march, wed
wed1023:00−10nnw338592 0.0 102863
02:00−14ssw128960 0.0 103020
05:00−14se229142 0.0 102921
08:00−13ese239271 0.0 102859
11:00−6se5108998 0.0 1024453
14:00−3sse479193 0.0 1020423
17:00−1se359143 0.0 1019319
20:00−6se229622 0.0 102021
11 march, thu
thu1123:00−8sse229713 0.0 102221
02:00−8s129825 0.0 102221
05:00−9se229743 0.0 102121
08:00−8se389955 0.0 1019194
11:00−4se5108689 0.0 1014332
14:000sse379676 0.0 1011287
17:00+1se24100100 0.0 1011133
20:00−1s229996 0.0 101464
12 march, fri
fri1223:00−4se1197100 0.0 101521
02:00−5nne0089100 0.0 101621
05:00−2n2898100 0.8 1019466
08:00−3wnw2397100 2.9 1021114
11:00−4n2591100 0.6 1023397
14:00−2se2387100 0.6 1021460
17:00−1se598826 0.0 1018727
20:00−3se5139263 0.0 1016413